DeKalb, IL

9:51 AM CDT on October 20, 2017 (GMT -0500)
De Kalb Taylor Municipal

Weather History for KDKB - December, 2012

Change the Weather History Date:

Tuesday, December 4, 2012

  Actual Average (KARR) Record (KARR)
Temperature  
Mean Temperature 46 °F -  
Max Temperature 57 °F 39 °F 66 °F (1998)
Min Temperature 35 °F 24 °F 2 °F (2006)
Degree Days  
Heating Degree Days 19    
Moisture  
Dew Point 37 °F    
Average Humidity 68    
Maximum Humidity 87    
Minimum Humidity 39    
Precipitation  
Precipitation 0.00 in - - ()
Sea Level Pressure  
Sea Level Pressure 30.11 in    
Wind  
Wind Speed 11 mph (WNW)    
Max Wind Speed 18 mph    
Max Gust Speed 23 mph    
Visibility 10 miles    
Events      
Averages and records for this station are not official NWS values.
T = Trace of Precipitation, MM = Missing Value Source: NWS Daily Summary

Daily Weather History Graph

Daily Weather History Graph

Search for Another Location

Airport or City:

Trip Planner

Search our weather history database for the weather conditions in past years. The results will help you decide how hot, cold, wet, or windy it might be!

Date:

Astronomy

Dec. 04, 2012 Rise Set
Actual Time 7:06 AM CST 4:23 PM CST
Civil Twilight 6:35 AM CST 4:55 PM CST
Nautical Twilight 6:00 AM CST 5:29 PM CST
Astronomical Twilight 5:26 AM CST 6:03 PM CST
Moon 10:14 PM CST (12/4) 10:57 AM CST (12/4)
Length of Visible Light 10h 19m
Length of Day
9h 17m
Waning Gibbous, 69% of the Moon is Illuminated
Dec 4
Waning Gibbous
Dec 6
Last Quarter
Dec 13
New
Dec 19
First Quarter
Dec 28
Full

Hourly Weather History & Observations

Time (CST) Temp. Windchill Dew Point Humidity Pressure Visibility Wind Dir Wind Speed Gust Speed Precip Events Conditions
12:15 AM 52.5 °F - 47.8 °F 84% 29.94 in 10.0 mi WNW 13.8 mph - N/A   Overcast
12:35 AM 51.8 °F - 46.8 °F 83% 29.92 in 10.0 mi NW 10.4 mph - N/A   Overcast
12:55 AM 51.8 °F - 46.8 °F 83% 29.94 in 10.0 mi WNW 9.2 mph - N/A   Overcast
1:15 AM 50.7 °F - 46.4 °F 85% 29.95 in 10.0 mi NW 9.2 mph - N/A   Overcast
1:35 AM 50.4 °F - 45.7 °F 84% 29.96 in 10.0 mi NW 10.4 mph - N/A   Overcast
1:55 AM 49.6 °F - 45.3 °F 85% 29.97 in 10.0 mi NW 10.4 mph - N/A   Overcast
2:15 AM 49.6 °F - 44.6 °F 83% 29.97 in 10.0 mi NW 11.5 mph - N/A   Mostly Cloudy
2:35 AM 50.0 °F - 44.6 °F 82% 29.98 in 10.0 mi NW 10.4 mph - N/A   Scattered Clouds
2:55 AM 48.9 °F - 44.1 °F 83% 29.99 in 10.0 mi NW 9.2 mph - N/A   Scattered Clouds
3:15 AM 48.4 °F - 43.7 °F 84% 29.99 in 10.0 mi NW 8.1 mph - N/A   Scattered Clouds
3:35 AM 48.0 °F - 43.3 °F 84% 30.00 in 10.0 mi NW 5.8 mph - N/A   Clear
3:55 AM 47.7 °F - 43.2 °F 84% 30.01 in 10.0 mi NW 5.8 mph - N/A   Clear
4:15 AM 46.4 °F 44.3 °F 42.8 °F 87% 30.03 in 10.0 mi WNW 4.6 mph - N/A   Clear
4:35 AM 46.4 °F 45.2 °F 42.8 °F 87% 30.04 in 10.0 mi West 3.5 mph - N/A   Clear
4:55 AM 46.4 °F 44.3 °F 42.3 °F 85% 30.04 in 10.0 mi West 4.6 mph - N/A   Clear
5:15 AM 46.4 °F 43.5 °F 41.9 °F 84% 30.05 in 10.0 mi West 5.8 mph - N/A   Clear
5:35 AM 45.9 °F 43.6 °F 41.5 °F 85% 30.05 in 10.0 mi West 4.6 mph - N/A   Clear
5:55 AM 45.9 °F 42.9 °F 41.5 °F 85% 30.05 in 10.0 mi West 5.8 mph - N/A   Clear
6:15 AM 45.5 °F 41.8 °F 41.4 °F 85% 30.06 in 10.0 mi West 6.9 mph - N/A   Clear
6:35 AM 45.5 °F 42.5 °F 41.0 °F 84% 30.06 in 10.0 mi West 5.8 mph - N/A   Clear
6:55 AM 45.7 °F 41.5 °F 40.1 °F 81% 30.07 in 10.0 mi West 8.1 mph - N/A   Clear
7:15 AM 45.9 °F 40.4 °F 39.4 °F 78% 30.07 in 10.0 mi WNW 11.5 mph - N/A   Clear
7:35 AM 46.0 °F 39.9 °F 39.2 °F 77% 30.08 in 10.0 mi WNW 13.8 mph - N/A   Clear
7:55 AM 45.9 °F 40.0 °F 38.7 °F 76% 30.09 in 10.0 mi WNW 12.7 mph - N/A   Clear
8:15 AM 45.9 °F 39.7 °F 37.8 °F 73% 30.09 in 10.0 mi WNW 13.8 mph - N/A   Clear
8:35 AM 45.9 °F 40.4 °F 37.9 °F 74% 30.09 in 10.0 mi WNW 11.5 mph - N/A   Clear
8:55 AM 46.4 °F 41.1 °F 37.8 °F 72% 30.09 in 10.0 mi WNW 11.5 mph - N/A   Clear
9:15 AM 46.4 °F 41.1 °F 37.6 °F 71% 30.11 in 10.0 mi WNW 11.5 mph - N/A   Clear
9:35 AM 46.8 °F - 37.8 °F 71% 30.11 in 10.0 mi WNW 11.5 mph - N/A   Clear
9:55 AM 47.7 °F - 37.2 °F 67% 30.11 in 10.0 mi WNW 10.4 mph - N/A   Clear
10:15 AM 48.2 °F - 37.4 °F 66% 30.11 in 10.0 mi WNW 11.5 mph - N/A   Clear
10:35 AM 50.2 °F - 37.2 °F 61% 30.12 in 10.0 mi WNW 12.7 mph 18.4 mph N/A   Clear
10:55 AM 51.1 °F - 37.2 °F 59% 30.11 in 10.0 mi WNW 13.8 mph - N/A   Clear
11:15 AM 51.8 °F - 37.2 °F 58% 30.11 in 10.0 mi WNW 16.1 mph - N/A   Clear
11:35 AM 52.9 °F - 37.6 °F 56% 30.11 in 10.0 mi WNW 12.7 mph - N/A   Clear
11:55 AM 53.6 °F - 37.4 °F 54% 30.10 in 10.0 mi West 16.1 mph 20.7 mph N/A   Clear
12:15 PM 53.4 °F - 36.5 °F 53% 30.10 in 10.0 mi WNW 13.8 mph 18.4 mph N/A   Clear
12:35 PM 54.3 °F - 35.4 °F 49% 30.09 in 10.0 mi West 16.1 mph 21.9 mph N/A   Clear
12:55 PM 55.4 °F - 35.6 °F 47% 30.09 in 10.0 mi West 18.4 mph - N/A   Clear
1:15 PM 55.6 °F - 33.8 °F 44% 30.09 in 10.0 mi West 17.3 mph - N/A   Clear
1:35 PM 56.3 °F - 34.3 °F 44% 30.09 in 10.0 mi West 15.0 mph 21.9 mph N/A   Clear
1:55 PM 56.7 °F - 34.0 °F 42% 30.08 in 10.0 mi West 16.1 mph 20.7 mph N/A   Clear
2:15 PM 57.0 °F - 32.9 °F 40% 30.08 in 10.0 mi West 16.1 mph 23.0 mph N/A   Clear
2:35 PM 56.8 °F - 32.2 °F 39% 30.09 in 10.0 mi West 17.3 mph - N/A   Clear
2:55 PM 56.7 °F - 33.6 °F 42% 30.10 in 10.0 mi West 13.8 mph 17.3 mph N/A   Clear
3:15 PM 55.9 °F - 34.7 °F 45% 30.11 in 10.0 mi West 10.4 mph 17.3 mph N/A   Clear
3:35 PM 55.2 °F - 32.0 °F 41% 30.12 in 10.0 mi WNW 15.0 mph 23.0 mph N/A   Clear
3:55 PM 54.0 °F - 30.7 °F 41% 30.13 in 10.0 mi West 18.4 mph 23.0 mph N/A   Clear
4:15 PM 52.9 °F - 31.1 °F 43% 30.13 in 10.0 mi WNW 13.8 mph 21.9 mph N/A   Clear
4:35 PM 50.5 °F - 32.0 °F 49% 30.14 in 10.0 mi WNW 10.4 mph - N/A   Clear
4:55 PM 49.1 °F - 32.7 °F 53% 30.15 in 10.0 mi WNW 10.4 mph - N/A   Clear
5:35 PM 48.4 °F - 32.2 °F 54% 30.16 in 10.0 mi West 12.7 mph - N/A   Clear
5:55 PM 47.8 °F - 32.0 °F 54% 30.16 in 10.0 mi West 12.7 mph - N/A   Clear
6:15 PM 48.4 °F - 32.0 °F 53% 30.17 in 10.0 mi West 13.8 mph - N/A   Clear
6:35 PM 47.7 °F - 32.0 °F 55% 30.17 in 10.0 mi WNW 15.0 mph 20.7 mph N/A   Clear
6:55 PM 47.3 °F - 32.0 °F 55% 30.17 in 10.0 mi WNW 13.8 mph - N/A   Clear
7:15 PM 46.2 °F 41.2 °F 32.0 °F 58% 30.18 in 10.0 mi WNW 10.4 mph - N/A   Clear
7:35 PM 44.6 °F 39.2 °F 32.0 °F 61% 30.19 in 10.0 mi West 10.4 mph - N/A   Clear
7:55 PM 43.7 °F 37.3 °F 32.2 °F 64% 30.19 in 10.0 mi WNW 12.7 mph - N/A   Clear
8:15 PM 41.9 °F 35.9 °F 32.2 °F 68% 30.20 in 10.0 mi WNW 10.4 mph - N/A   Clear
8:35 PM 40.5 °F 33.6 °F 32.4 °F 73% 30.20 in 10.0 mi WNW 11.5 mph - N/A   Clear
8:55 PM 41.0 °F 34.7 °F 32.2 °F 71% 30.21 in 10.0 mi WNW 10.4 mph - N/A   Clear
9:15 PM 39.4 °F 33.8 °F 32.0 °F 75% 30.21 in 10.0 mi WNW 8.1 mph - N/A   Clear
9:35 PM 39.0 °F 32.3 °F 32.0 °F 76% 30.23 in 10.0 mi WNW 10.4 mph - N/A   Clear
9:55 PM 38.3 °F 32.5 °F 31.8 °F 77% 30.24 in 10.0 mi WNW 8.1 mph - N/A   Clear
10:15 PM 37.6 °F 32.3 °F 31.5 °F 79% 30.25 in 10.0 mi NW 6.9 mph - N/A   Clear
10:35 PM 35.2 °F 29.5 °F 30.2 °F 82% 30.26 in 10.0 mi NW 6.9 mph - N/A   Clear
10:55 PM 37.6 °F 32.3 °F 30.9 °F 77% 30.27 in 10.0 mi NNW 6.9 mph - N/A   Clear
11:15 PM 35.6 °F 29.2 °F 29.3 °F 78% 30.28 in 10.0 mi NNW 8.1 mph - N/A   Clear
11:35 PM 35.6 °F 28.0 °F 28.2 °F 75% 30.30 in 10.0 mi NNW 10.4 mph - N/A   Clear
11:55 PM 35.2 °F 28.1 °F 28.2 °F 76% 30.30 in 10.0 mi NNW 9.2 mph - N/A   Clear